Время (UTC), дата Ветер
(°,м/с) 
Видим.   Явления Облачность Т
(°С)
Тd
(°С)
f(%) Тe
(°С)
Pmin
(гПа)
dP
(гПа)
Po
(мм)
O2
(г/м3)
Тmin Tmax R s Состояние
почвы
00 20.08.14 330 (СЗ) 10 км    ясно 
+17.9 +16.2 90 +30  1015.5  0.4  723  270           
03 20.08.14 240 (ЮЗ) 20000 м    10/0 средняя 
[Ac und]
+16.4 +14.8 90 +27  1016.8  0.9  723  272  +16.3        влажная 
06 20.08.14 160 (Ю) 10 км  слаб. ливневой дождь  10/5 960 м кучево-дожд., средняя 
[Cb cap|Ac und]
+19 +16 83 +32  1017.1  0.8  724  269           
09 20.08.14 360 (С) 10 км  слаб. ливневой дождь  10/4 600 м кучево-дожд., средняя 
[Cb cap|Ac und]
+19.8 +16.8 83 +34  1017.1  0.1  724  268           
12 20.08.14 310 (СЗ) 4000 м  дымка{ливн. осадки}  10/6 210 м кучево-дожд., средняя 
[Cb cap|Ac und]
+20.6 +18.6 88 +37  1016.6  -0.3  724  267           
15 20.08.14 170 (Ю) 10 км    8/3 600 м средняя, верхняя 
[Sc diur, vesp|Ac trans|Ci sp]
+22.4 +18.3 78 +39  1015.6  -0.6  723  265    +23.2     
18 20.08.14 170 (Ю) 10 км    3/0 средняя 
[Ac trans]
+19 +17.7 92 +35  1016.8  0.5  724  269           
21 20.08.14 260 (З) 20000 м    3/0 средняя 
[Ac trans]
+19 +17.1 89 +34  1016.2  -0.5  723  269           
00 21.08.14 320 (СЗ) 20000 м    3/0 средняя 
[Ac trans]
+18.6 +16 85 +32  1015.8  -0.5  723  269           
03 21.08.14 170 (Ю) 10 км    1/0 средняя 
[Ac trans]
+16.8 +15.4 91 +28  1016.8  0.7  724  271  +16.3        влажная 
06 21.08.14 130 (ЮВ) 20000 м    3/3 600 м 
[Cu hum]
+23.4 +17.6 70 +38  1015.8  0.2  724  265           
09 21.08.14 120 (ЮВ) 20000 м    8/8 800 м кучево-дожд. 
[Cb calv]
+27.2 +17 54 +41  1014.4  -0.7  723  261           
12 21.08.14 300 (СЗ) 20000 м    6/6 900 м 
[Cu med, cong]
+28.9 +15.6 44 +40  1013.1  -1  722  260           
15 21.08.14 160 (Ю) 20000 м    8/8 1000 м кучево-дожд. 
[Cb calv]
+26.2 +17.2 58 +40  1013.2  -0.4  722  262    +29.6       
18 21.08.14 070 (В) 20000 м  гроза без осадков{ливн. осадки}  8/5 1000 м кучево-дожд., средняя 
[Cb calv|Ac trans]
+21.2 +18.9 87 +39  1014.3  0.3  722  266           
21 21.08.14 060 (СВ) 20000 м  {гроза}  10/5 1000 м кучево-дожд., средняя 
[Cb calv|Ac und]
+21.8 +16.5 72 +34  1013.7  -0.5  722  266           
00 22.08.14 200 (Ю) 20000 м  {гроза}  3/0 средняя 
[Ac trans]
+20.2 +16.8 81 +33  1013.8  0.1  722  267           
03 22.08.14 170 (Ю) 20000 м    3/0 средняя 
[Ac trans]
+20.6 +15.6 73 +31  1014  0.3  722  267  +19.4      влажная 
06 22.08.14 170 (Ю) 20000 м    8/3 1000 м кучево-дожд., средняя 
[Cb calv|Ac trans]
+25.7 +17.2 59 +40  1013.7  0.6  722  262           
09 22.08.14 150 (ЮВ) 20000 м    8/4 1000 м кучево-дожд., средняя 
[Cb calv|Ac trans]
+30 +15.7 42 +41  1012.2  -0.8  722  259           
12 22.08.14 270 (З) 20000 м    4/4 1000 м 
[Cu hum]
+31.8 +14.4 35 +40  1011.1  -0.8  721  257           
15 22.08.14 270 (З) 20000 м    3/1 600 м верхняя 
[Cu hum|Ci fib]
+29.6 +12.5 35 +35  1011.5  -0.1  721  260    +32.2       
18 22.08.14 290 (З) 20000 м    6/0 средняя 
[Ac As]
+25.2 +11.1 41 +29  1013.2  0.8  722  264           
21 22.08.14 280 (З) 20000 м    6/0 средняя 
[Ac trans]
+22.8 +10.2 45 +25  1013.6  0.1  722  267           
00 23.08.14 290 (З) 20000 м    3/0 средняя 
[Ac trans]
+20.4 +10 51 +22  1014.3  0.3  722  269           
03 23.08.14 280 (З) 20000 м    6/0 средняя 
[Ac As]
+19.4 +11.1 59 +23  1015.3  0.8  723  270  +19        сухая 
06 23.08.14 270 (З) 20000 м    3/0 средняя 
[Ac trans]
+24.6 +12.1 46 +29  1014.8  0.4  723  265           
09 23.08.14 270 (З) 20000 м    1/0 средняя 
[Ac trans]
+28.8 +10.8 33 +32  1013.6  -0.4  723  261           
12 23.08.14 290 (З) 20000 м    4/0 средняя, верхняя 
[Ac trans|Ci fib]
+30 +9.3 28 +31  1012.8  -0.6  722  261           
15 23.08.14 250 (З) 20000 м    8/3 600 м средняя 
[Cu hum|Ac trans]
+27.1 +10.3 35 +29  1013.1  -0.2  722  263    +30.3       
18 23.08.14 270 (З) 20000 м    6/3 1000 м средняя 
[Sc|Ac trans]
+23.2 +12.6 51 +29  1014.3  0.6  723  266           
21 23.08.14 320 (СЗ) 20000 м    3/0 средняя 
[Ac trans]
+21.8 +11.3 51 +26  1014.7  0.1  723  267           
00 24.08.14 320 (СЗ) 20000 м    6/0 средняя 
[Ac As]
+19.8 +10.4 55 +23  1015  723  270           
03 24.08.14 300 (СЗ) 20000 м    4/0 средняя, верхняя 
[Ac trans|Ci sp]
+17.6 +10.6 64 +21  1015.5  -0.1  723  272  +17.6        сухая 
06 24.08.14 020 (С) 20000 м    3/0 верхняя 
[Ci fib]
+24.2 +7.3 34 +24  1014.2  0.1  722  266           
09 24.08.14 060 (СВ) 20000 м    ясно 
+28.7 +9.3 30 +30  1012  -1.4  722  261           
12 24.08.14 140 (ЮВ) 20000 м    8/0 верхняя 
[Ci fib]
+31.6 +10 26 +34  1009.8  -1.6  720  258           
15 24.08.14 090 (В) 20000 м    4/0 верхняя 
[Ci fib]
+29.8 +10.3 30 +32  1009.2  -0.9  720  260    +31.7       
18 24.08.14 040 (СВ) 20000 м    6/0 средняя 
[Ac trans]
+26.6 +10.5 36 +29  1009.9  0.2  720  262           
21 24.08.14 070 (В) 20000 м    3/0 средняя 
[Ac trans]
+21.6 +10.4 49 +24  1010.3  -0.5  719  267           
00 25.08.14 130 (ЮВ) 20000 м    ясно 
+21.1 +10.9 52 +24  1010.1  -0.2  719  267           
03 25.08.14 170 (Ю) 20000 м    4/0 средняя 
[Ac trans]
+21.1 +13.6 62 +28  1010.7  0.6  720  266  +19.1        сухая 
06 25.08.14 260 (З) 20000 м    3/3 600 м 
[Cu hum]
+28 +13.4 41 +35  1010.5  720  261           
09 25.08.14 280 (З) 20000 м    3/0 средняя 
[Ac trans]
+31.3 +12.6 32 +37  1010.5  0.4  721  258           
12 25.08.14 280 (З) 20000 м    1/0 средняя 
[Ac trans]
+32.6 +12.7 30 +38  1010  -0.2  721  257           
15 25.08.14 290 (З) 20000 м    ясно 
+30.6 +11.4 31 +35  1010.3  721  259    +32.8       
18 25.08.14 310 (СЗ) 20000 м    3/0 средняя 
[Ac trans]
+25.8 +12.8 44 +32  1012  0.9  721  263           
21 25.08.14 330 (СЗ) 20000 м    4/0 средняя 
[Ac trans]
+25.2 +7.5 32 +25  1012.4  0.2  721  265           
00 26.08.14 310 (СЗ) 20000 м    3/0 средняя 
[Ac trans]
+22.7 +9.1 42 +23  1013.2  0.4  722  267           
03 26.08.14 270 (З) 20000 м    8/0 средняя 
[Ac trans]
+20.1 +11.3 57 +24  1014.4  0.7  722  269  +20.1        сухая 
06 26.08.14 250 (З) 20000 м    8/3 600 м кучево-дожд., средняя 
[Cb calv|Ac As]
+23.7 +14 55 +32  1014.5  0.7  723  265  +19.5         
09 26.08.14 300 (СЗ) 20000 м    8/0 средняя 
[Ac As]
+28.3 +11.8 36 +33  1013.4  -0.3  722  262           
12 26.08.14 280 (З) 20000 м    6/3 1000 м кучево-дожд., средняя 
[Cb calv|Ac As]
+30.2 +11.9 32 +35  1012.3  -0.8  722  260           
15 26.08.14 270 (З) 20000 м    6/4 1000 м кучево-дожд., средняя 
[Cb calv|Ac As]
+27.8 +12.9 40 +34  1012.9  0.3  722  262    +30.7       
18 26.08.14 340 (С) 20000 м    10/4 1000 м кучево-дожд., средняя 
[Cb calv|Ac und]
+25.9 +12.7 44 +32  1013.5  0.2  722  263           
21 26.08.14 050 (СВ) 20000 м    4/0 средняя 
[Ac trans]
+22.8 +11.2 48 +26  1013.3  -0.7  722  266           
00 27.08.14 090 (В) 20000 м    ясно 
+19 +11.5 62 +24  1012.7  -1.3  721  269           
03 27.08.14 180 (Ю) 20000 м    3/0 средняя 
[Ac trans]
+19.2 +11.9 63 +25  1012.4  -0.2  721  269  +17.3        сухая 
06 27.08.14 130 (ЮВ) 20000 м    6/0 средняя, верхняя 
[Ac trans|Ci]
+25.8 +12.7 44 +32  1011.6  -0.2  721  263           
09 27.08.14 240 (ЮЗ) 20000 м    3/0 верхняя 
[Ci sp]
+32 +12 29 +37  1009.4  -1.1  720  257           
12 27.08.14 260 (З) 20000 м    1/1 600 м 
[Cu hum]
+33.5 +10.2 24 +36  1007.7  -1.3  719  256           
15 27.08.14 310 (СЗ) 20000 м    ясно 
+31.2 +11.5 30 +35  1007  -1  718  258    +34.1       
18 27.08.14 340 (С) 20000 м    3/0 средняя 
[Ac trans]
+26.5 +13.2 44 +33  1008  0.2  718  261           
21 27.08.14 тихо ()   20000 м    3/0 средняя 
[Ac trans]
+23.3 +13.8 55 +31  1007.6  -0.9  718  264           
00 28.08.14 190 (Ю) 20000 м    ясно 
+21.9 +14.1 61 +30  1006.7  -1.1  717  265           
03 28.08.14 280 (З) 20000 м    ясно 
+23 +13.5 55 +30  1006.8  0.3  717  264  +19.2        сухая 
06 28.08.14 300 (СЗ) 20000 м    ясно 
+27.4 +14.2 44 +36  1006.6  0.5  718  260           
09 28.08.14 340 (С) 20000 м    ясно 
+31.7 +13.4 33 +39  1005.6  -0.2  717  256           
12 28.08.14 310 (СЗ) 20000 м    ясно 
+33.6 +13.4 30 +41  1004.8  -0.2  717  255           
15 28.08.14 290 (З) 20000 м    ясно 
+30.9 +12.2 32 +36  1005.2  -0.1  717  257    +33.7       
18 28.08.14 300 (СЗ) 20000 м    3/0 средняя 
[Ac trans]
+26.4 +13.1 44 +33  1007.1  1.1  718  261           
21 28.08.14 300 (СЗ) 20000 м    5/0 средняя 
[Ac trans]
+23.7 +10.5 43 +26  1009.4  1.6  719  265           
00 29.08.14 290 (З) 20000 м    9/0 средняя 
[Ac trans]
+21.4 +15.2 68 +32  1011  1.3  720  266           
03 29.08.14 290 (З) 20000 м    8/3 1000 м кучево-дожд., средняя 
[Cb calv|Ac trans]
+19.5 +16.2 81 +32  1012.9  1.5  721  268  +19.5        сухая 
06 29.08.14 280 (З) 20000 м    8/5 600 м кучево-дожд., средняя 
[Cb calv|Ac trans]
+21.1 +12.9 59 +27  1014  1.2  722  267  +19.2         
09 29.08.14 280 (З) 20000 м    6/3 1000 м кучево-дожд., средняя 
[Cb calv|Ac trans]
+22.7 +7 36 +23  1014.6  0.8  723  268           
12 29.08.14 300 (СЗ) 20000 м    10/3 1000 м средняя 
[Sc|Ac trans]
+24.6 +5.4 29 +25  1013.8  -0.4  722  266           
15 29.08.14 300 (СЗ) 20000 м    8/3 1000 м средняя 
[Sc|Ac trans]
+23.5 +6.3 33 +24  1014  722  267    +25.7       
18 29.08.14 340 (С) 20000 м    8/3 1000 м средняя 
[Sc|Ac trans]
+20.6 +5.8 38 +21  1015.5  0.9  723  270           
21 29.08.14 330 (СЗ) 20000 м    10/3 1000 м средняя 
[Sc|Ac und]
+19.3 +5.3 40 +20  1016.6  0.8  724  271           
00 30.08.14 330 (СЗ) 20000 м    8/3 1000 м средняя 
[Sc|Ac trans]
+19.3 +5.3 40 +20  1016.6  1.2  725  272           
03 30.08.14 340 (С) 20000 м    9/3 1000 м средняя 
[Sc|Ac trans]
+15.4 +7.2 58 +16  1019.9  1.2  725  275  +15.3        сухая 
06 30.08.14 030 (СВ) 20000 м    8/0 средняя 
[Ac trans]
+21 +6.5 39 +21  1019.7  0.8  726  271  +15.3         
09 30.08.14 060 (СВ) 20000 м    3/3 600 м 
[Cu hum]
+24.4 +5 29 +24  1018.2  -0.9  725  267           
12 30.08.14 260 (З) 20000 м    3/3 1000 м 
[Cu hum]
+26.5 +4.2 24 +27  1016.6  -1.2  724  265           
15 30.08.14 010 (С) 20000 м    1/0 средняя 
[Ac trans]
+24.6 +3.7 26 +25  1016.5  -0.4  724  267    +26.8       
18 30.08.14 040 (СВ) 20000 м    ясно 
+18 +3.2 37 +19  1018.7  725  273           
21 30.08.14 040 (СВ) 20000 м    3/0 средняя 
[Ac trans]
+18.1 +1 32 +19  1018.3  725  274           
00 31.08.14 060 (СВ) 20000 м    ясно 
+16.1 +2 39 +17  1018.7  725  275           
03 31.08.14 100 (В) 20000 м    ясно 
+15.1 +2.1 41 +16  1018.7  0.1  725  276  +14.4        сухая 
06 31.08.14 120 (ЮВ) 20000 м    ясно 
+22.2 +10.8 48 +25  1017.2  0.1  724  268           
09 31.08.14 100 (В) 5{10}  20000 м    5/5 600 м 
[Cu hum]
+26.3 +8.3 32 +26  1015.6  0.1  724  265           
12 31.08.14 090 (В) 4{10}  20000 м    4/4 1000 м 
[Cu hum]
+27.9 +6.6 26 +28  1013.9  -1.3  723  263           
15 31.08.14 100 (В) 7-10  20000 м    4/1 1000 м верхняя 
[Cu hum|Ci fib]
+26.3 +6.2 28 +26  1013.5  -0.7  722  264    +28.6       
18 31.08.14 080 (В) 5{10}  20000 м    ясно 
+21.4 +5.6 36 +21  1014.5  0.1  722  269           
21 31.08.14 110 (В) 20000 м    ясно 
+19.2 +9.6 54 +21  1014.5  -0.3  722  270           
00 01.09.14 090 (В) 20000 м    ясно 
+16.8 +11.6 71 +21  1014.3  -0.6  722  272           
03 01.09.14 100 (В) 20000 м    ясно 
+15.7 +11.2 75 +19  1015  0.4  722  273  +15.2        сухая 
Время (UTC), дата Ветер
(°,м/с) 
Видим.   Явления Облачность Т
(°С)
Тd
(°С)
f(%) Тe
(°С)
Pmin
(гПа)
dP
(гПа)
Po
(мм)
O2
(г/м3)
Тmin Tmax R s Состояние
почвы